DW4005 Mahon ES current weather conditions

sailwx.info

Wind from 088

Air temperature 11.1° C
Dewpoint 6.1° C

Last reported at 2015-Jan-30 12:49 UTC.
Time now 2015-Jan-30 14:05 UTC

Location: N 39°56' E 004°08'.
View on Google Maps.

See reports from other nearby stations

  
Tides and Currents Weather Stations Pressure Air Temp Water Temp Dewpoint Dewpoint Depression Visibility Wind Speed Wind Dir Waves Ship Positions
date/time (UTC)wind fromknots sea level pressurealtimeterstation pressurevisibilityair tempwater tempwave heightnotes
2015-Jan-30 13:32 100 0 gusting 3 11.1
2015-Jan-30 13:17 091 11.1
2015-Jan-30 13:02 089 11.1
2015-Jan-30 12:49 088 11.1
2015-Jan-30 12:32 088 0 gusting 4 11.1
2015-Jan-30 12:17 088 0 gusting 6 11.1
2015-Jan-30 12:02 074 11.1
2015-Jan-30 11:47 052 1 gusting 4 11.1
2015-Jan-30 11:32 051 11.1
2015-Jan-30 11:17 053 0 gusting 6 11.1
2015-Jan-30 11:02 360 0 gusting 6 11.7
2015-Jan-30 10:47 005 0 gusting 5 11.7
2015-Jan-30 10:32 015 0 gusting 5 11.7
2015-Jan-30 10:17 329 0 gusting 12 12.2
2015-Jan-30 10:02 332 0 gusting 9 12.2
2015-Jan-30 09:47 320 0 gusting 5 12.8
2015-Jan-30 09:32 320 0 gusting 10 12.8
2015-Jan-30 09:17 343 1 gusting 6 13.9
2015-Jan-30 09:02 329 9 gusting 19 16.1
2015-Jan-30 08:47 315 8 gusting 19 16.7
2015-Jan-30 08:32 297 8 gusting 24 16.7
2015-Jan-30 08:17 312 9 gusting 21 16.7
2015-Jan-30 08:02 285 7 gusting 24 16.7
2015-Jan-30 07:47 030 6 gusting 23 16.1
2015-Jan-30 07:32 311 6 gusting 21 16.1
2015-Jan-30 07:16 281 6 gusting 20 16.1
2015-Jan-30 07:01 289 10 gusting 24 16.1
2015-Jan-30 06:46 323 8 gusting 21 16.7
2015-Jan-30 06:31 293 10 gusting 26 16.7
2015-Jan-30 06:16 261 5 gusting 27 16.7
2015-Jan-30 06:01 308 8 gusting 23 16.7
2015-Jan-30 05:46 288 7 gusting 25 16.7
2015-Jan-30 05:32 290 7 gusting 23 16.7
2015-Jan-30 05:16 306 6 gusting 20 16.7
2015-Jan-30 05:01 311 7 gusting 19 16.7
2015-Jan-30 04:46 286 4 gusting 16 15.6
2015-Jan-30 04:31 263 3 gusting 13 15.6
2015-Jan-30 04:16 213 1 gusting 13 15.6
2015-Jan-30 04:01 282 4 gusting 13 15.0
2015-Jan-30 03:46 268 1 gusting 13 15.0
2015-Jan-30 03:31 304 5 gusting 13 15.0
2015-Jan-30 03:16 266 4 gusting 15 14.4
2015-Jan-30 03:01 309 1 gusting 13 14.4
2015-Jan-30 02:46 261 3 gusting 11 14.4
2015-Jan-30 02:31 332 4 gusting 12 14.4
2015-Jan-30 02:16 275 0 gusting 10 14.4
2015-Jan-30 02:01 278 3 gusting 9 14.4
2015-Jan-30 01:46 267 1 gusting 7 14.4
2015-Jan-30 01:31 317 1 gusting 7 14.4
2015-Jan-30 01:16 283 1 gusting 8 14.4
2015-Jan-30 01:01 255 13.9
2015-Jan-30 00:46 275 0 gusting 6 14.4
2015-Jan-30 00:31 288 1 gusting 9 14.4
2015-Jan-30 00:16 274 1 gusting 9 14.4
2015-Jan-30 00:01 263 0 gusting 10 14.4
2015-Jan-29 23:46 229 2 gusting 15 14.4
2015-Jan-29 23:31 255 3 gusting 13 14.4
2015-Jan-29 23:19 274 2 gusting 12 14.4
2015-Jan-29 23:01 210 2 gusting 10 14.4
2015-Jan-29 22:46 284 1 gusting 10 13.9
2015-Jan-29 22:31 268 3 gusting 10 13.9
2015-Jan-29 22:16 311 3 gusting 11 13.9
2015-Jan-29 22:01 294 2 gusting 9 13.9
2015-Jan-29 21:46 264 3 gusting 12 13.9
2015-Jan-29 21:31 306 2 gusting 12 13.9
2015-Jan-29 21:16 215 13.9
2015-Jan-29 21:01 247 4 gusting 13 13.9
2015-Jan-29 20:46 273 3 gusting 16 13.9
2015-Jan-29 20:31 278 2 gusting 10 13.9
2015-Jan-29 20:16 288 1 gusting 8 13.9
2015-Jan-29 20:01 259 2 gusting 11 13.9
2015-Jan-29 19:46 252 0 gusting 11 13.9
2015-Jan-29 19:30 302 1 gusting 15 13.9
2015-Jan-29 19:15 292 3 gusting 13 13.9
2015-Jan-29 19:00 264 4 gusting 16 13.9
2015-Jan-29 18:45 223 3 gusting 13 13.9
2015-Jan-29 18:30 234 5 gusting 18 13.9
2015-Jan-29 18:15 290 5 gusting 13 13.9
2015-Jan-29 18:00 211 3 gusting 15 13.3
2015-Jan-29 17:45 280 2 gusting 11 13.3
2015-Jan-29 17:30 257 1 gusting 18 13.3
2015-Jan-29 17:15 279 4 gusting 13 13.3
2015-Jan-29 17:00 294 2 gusting 17 13.3
2015-Jan-29 16:45 259 1 gusting 11 13.9
2015-Jan-29 16:30 154 0 gusting 6 13.9
2015-Jan-29 16:15 338 0 gusting 6 14.4
2015-Jan-29 16:02 290 1 gusting 9 14.4
2015-Jan-29 15:45 029 1 gusting 5 15.0
2015-Jan-29 15:30 112 0 gusting 7 15.0
2015-Jan-29 15:15 351 0 gusting 11 15.0
2015-Jan-29 15:00 300 0 gusting 9 15.6
2015-Jan-29 14:45 275 0 gusting 8 15.6
2015-Jan-29 14:30 275 0 gusting 8 15.6
2015-Jan-29 14:15 275 2 gusting 11 15.6
2015-Jan-29 13:45 304 0 gusting 8 16.1
2015-Jan-29 13:30 311 3 gusting 12 16.1
2015-Jan-29 13:15 279 3 gusting 11 16.7
2015-Jan-29 12:45 265 6 gusting 15 16.1
2015-Jan-29 12:30 246 0 gusting 11 16.1
2015-Jan-29 12:15 271 1 gusting 12 15.6
2015-Jan-29 12:00 271 4 gusting 19 15.6
2015-Jan-29 11:45 277 6 gusting 17 15.6
2015-Jan-29 11:30 302 2 gusting 13 15.0
2015-Jan-29 11:15 297 5 gusting 15 14.4
2015-Jan-29 11:00 299 4 gusting 12 14.4
2015-Jan-29 10:45 259 3 gusting 7 15.0
2015-Jan-29 10:30 277 3 gusting 13 15.0
2015-Jan-29 10:15 204 0 gusting 9 14.4
2015-Jan-29 10:00 027 0 gusting 7 15.0
2015-Jan-29 09:45 294 1 gusting 6 14.4
2015-Jan-29 09:30 297 0 gusting 9 14.4
2015-Jan-29 09:15 296 13.9
2015-Jan-29 09:00 286 0 gusting 11 13.9
2015-Jan-29 08:46 315 1 gusting 8 13.3
2015-Jan-29 08:30 087 0 gusting 6 12.2
2015-Jan-29 08:15 277 0 gusting 5 12.2
2015-Jan-29 08:00 334 11.7
2015-Jan-29 07:45 143 11.1
2015-Jan-29 07:29 139 11.1
2015-Jan-29 07:14 130 11.1
2015-Jan-29 06:59 188 11.1
2015-Jan-29 06:44 130 10.6
2015-Jan-29 05:44 267 10.6
2015-Jan-29 05:29 277 10.6
2015-Jan-29 05:14 257 10.6
2015-Jan-29 04:59 259 10.6
2015-Jan-29 04:44 271 10.6
2015-Jan-29 04:29 269 10.0
2015-Jan-29 04:14 277 10.0
2015-Jan-29 03:59 273 9.4
2015-Jan-29 03:44 282 10.0
2015-Jan-29 03:29 284 10.0
2015-Jan-29 03:14 273 10.0
2015-Jan-29 02:59 213 10.0
2015-Jan-29 02:44 262 10.0
2015-Jan-29 02:29 242 10.0
2015-Jan-29 02:14 275 10.0
2015-Jan-29 01:59 269 10.0
2015-Jan-29 01:44 279 10.0
2015-Jan-29 01:30 244 9.4
2015-Jan-29 01:14 237 10.0
2015-Jan-29 00:59 269 10.0
2015-Jan-29 00:44 273 10.0
2015-Jan-29 00:29 269 10.0
2015-Jan-29 00:14 267 10.0
2015-Jan-28 23:59 277 10.0
2015-Jan-28 23:44 271 9.4
2015-Jan-28 23:29 267 9.4
2015-Jan-28 23:14 260 9.4
2015-Jan-28 22:59 257 9.4
2015-Jan-28 22:44 252 10.0
2015-Jan-28 22:29 265 10.0
2015-Jan-28 22:14 276 0 gusting 4 10.0
2015-Jan-28 21:59 265 10.0
2015-Jan-28 21:44 257 10.6
2015-Jan-28 21:29 262 10.0
2015-Jan-28 21:14 267 10.0
2015-Jan-28 20:59 268 10.0
2015-Jan-28 20:44 269 10.0
2015-Jan-28 20:29 267 10.0
2015-Jan-28 20:14 314 10.6
2015-Jan-28 19:59 330 2 gusting 6 10.6
2015-Jan-28 19:44 321 1 gusting 8 10.6
2015-Jan-28 19:29 329 1 gusting 6 10.6
2015-Jan-28 19:16 334 2 gusting 6 10.6
2015-Jan-28 18:59 324 2 gusting 6 10.0
2015-Jan-28 18:44 317 1 gusting 6 10.0
2015-Jan-28 18:29 327 2 gusting 6 10.0
2015-Jan-28 18:14 322 1 gusting 5 10.0
2015-Jan-28 17:59 331 1 gusting 6 10.0
2015-Jan-28 17:44 335 3 gusting 9 10.6
2015-Jan-28 17:29 333 4 gusting 8 10.6
2015-Jan-28 17:14 331 3 gusting 10 10.6
2015-Jan-28 16:59 319 5 gusting 8 11.1
2015-Jan-28 16:44 328 5 gusting 12 10.6
2015-Jan-28 16:29 328 2 gusting 12 10.6
2015-Jan-28 16:14 345 5 gusting 13 10.6
2015-Jan-28 15:59 328 6 gusting 13 11.1
2015-Jan-28 15:44 311 5 gusting 15 11.1
2015-Jan-28 15:29 335 6 gusting 17 11.1
2015-Jan-28 15:14 327 1 gusting 12 11.1
2015-Jan-28 14:59 314 4 gusting 10 11.1
2015-Jan-28 14:44 311 6 gusting 13 11.1
2015-Jan-28 14:29 320 0 gusting 12 11.1
2015-Jan-28 14:14 302 1 gusting 9 11.1